| time (UTC) | temp F | wind direction | speed MPH | gust MPH | rain 1hr in | rain 24hr in | rain mn in | humidity % | barometer mb |
| 20260906101306 | 67 | 76 | 1.0 | 2.0 | 0.00 | 0.00 | 0.00 | 90 | 1017.9 |
| 20260906100802 | 67 | 100 | 2.0 | 6.0 | 0.00 | 0.00 | 0.00 | 89 | 1018.2 |
| 20260906100300 | 67 | 82 | 1.0 | 2.0 | 0.00 | 0.00 | 0.00 | 89 | 1017.7 |
| 20260906095756 | 67 | 52 | 2.0 | 3.0 | 0.00 | 0.00 | 0.00 | 89 | 1017.8 |
| 20260906095251 | 68 | 138 | 3.0 | 5.0 | 0.00 | 0.00 | 0.00 | 89 | 1017.9 |
| 20260906094750 | 68 | 111 | 0.0 | 0.0 | 0.00 | 0.00 | 0.00 | 89 | 1017.8 |
| 20260906094245 | 68 | 116 | 2.0 | 3.0 | 0.00 | 0.00 | 0.00 | 89 | 1017.8 |
| 20260906093742 | 69 | 275 | 3.0 | 3.0 | 0.00 | 0.00 | 0.00 | 89 | 1017.8 |
| 20260906093237 | 69 | 96 | 4.0 | 6.0 | 0.00 | 0.00 | 0.00 | 89 | 1017.7 |
| 20260906092732 | 69 | 137 | 2.0 | 2.0 | 0.00 | 0.00 | 0.00 | 90 | 1018.0 |
| 20260906092232 | 70 | 46 | 3.0 | 5.0 | 0.00 | 0.00 | 0.00 | 90 | 1017.9 |
| 20260906091728 | 70 | 146 | 1.0 | 1.0 | 0.00 | 0.00 | 0.00 | 91 | 1018.0 |
| 20260906091224 | 70 | 73 | 3.0 | 5.0 | 0.00 | 0.00 | 0.00 | 92 | 1017.7 |
| 20260906090720 | 70 | 66 | 4.0 | 5.0 | 0.00 | 0.00 | 0.00 | 93 | 1017.9 |
| 20260906090219 | 71 | 36 | 3.0 | 5.0 | 0.00 | 0.00 | 0.00 | 93 | 1017.6 |
| 20260906085719 | 71 | 127 | 3.0 | 3.0 | 0.00 | 0.00 | 0.00 | 93 | 1017.7 |
| 20260906085218 | 71 | 67 | 3.0 | 6.0 | 0.00 | 0.00 | 0.00 | 94 | 1017.7 |
| 20260906084713 | 71 | 35 | 4.0 | 8.0 | 0.00 | 0.00 | 0.00 | 94 | 1017.4 |
| 20260906084212 | 71 | 37 | 4.0 | 6.0 | 0.00 | 0.00 | 0.00 | 94 | 1017.4 |
| 20260906083708 | 71 | 188 | 2.0 | 2.0 | 0.00 | 0.00 | 0.00 | 95 | 1017.5 |
| 20260906083203 | 71 | 144 | 4.0 | 7.0 | 0.00 | 0.00 | 0.00 | 95 | 1017.7 |
| 20260906082658 | 71 | 43 | 2.0 | 3.0 | 0.00 | 0.00 | 0.00 | 96 | 1017.5 |
| 20260906082153 | 71 | 352 | 3.0 | 3.0 | 0.00 | 0.00 | 0.00 | 96 | 1017.5 |
| 20260906081649 | 71 | 23 | 3.0 | 3.0 | 0.00 | 0.00 | 0.00 | 96 | 1017.5 |
| 20260906081144 | 71 | 44 | 1.0 | 2.0 | 0.00 | 0.00 | 0.00 | 96 | 1017.4 |
| 20260906080640 | 71 | 99 | 2.0 | 5.0 | 0.00 | 0.00 | 0.00 | 96 | 1017.5 |
| 20260906080136 | 70 | 22 | 2.0 | 5.0 | 0.00 | 0.00 | 0.00 | 96 | 1017.3 |
| 20260906075636 | 71 | 32 | 2.0 | 3.0 | 0.00 | 0.00 | 0.00 | 96 | 1017.4 |
| 20260906075130 | 71 | 43 | 2.0 | 2.0 | 0.00 | 0.00 | 0.00 | 96 | 1017.2 |
| 20260906074626 | 71 | 301 | 2.0 | 3.0 | 0.00 | 0.00 | 0.00 | 96 | 1017.5 |
| 20260906074125 | 71 | 69 | 1.0 | 1.0 | 0.00 | 0.00 | 0.00 | 96 | 1017.3 |
| 20260906073620 | 71 | 54 | 2.0 | 3.0 | 0.00 | 0.00 | 0.00 | 96 | 1017.3 |
| 20260906073115 | 71 | 81 | 3.0 | 5.0 | 0.00 | 0.00 | 0.00 | 96 | 1017.3 |
| 20260906072610 | 71 | 26 | 3.0 | 3.0 | 0.00 | 0.00 | 0.00 | 96 | 1017.5 |
| 20260906072107 | 71 | 39 | 3.0 | 5.0 | 0.00 | 0.00 | 0.00 | 96 | 1017.4 |
| 20260906071603 | 71 | 46 | 4.0 | 5.0 | 0.00 | 0.00 | 0.00 | 96 | 1017.3 |
| 20260906071103 | 71 | 7 | 3.0 | 3.0 | 0.00 | 0.00 | 0.00 | 96 | 1017.5 |
| 20260906070559 | 71 | 72 | 3.0 | 3.0 | 0.00 | 0.00 | 0.00 | 96 | 1017.4 |
| 20260906070054 | 71 | 107 | 1.0 | 2.0 | 0.00 | 0.00 | 0.00 | 96 | 1017.4 |
| 20260906065554 | 71 | 94 | 1.0 | 2.0 | 0.00 | 0.00 | 0.00 | 96 | 1017.4 |
| 20260906065050 | 71 | 340 | 0.0 | 0.0 | 0.00 | 0.00 | 0.00 | 96 | 1017.4 |
| 20260906064546 | 71 | 108 | 1.0 | 1.0 | 0.00 | 0.00 | 0.00 | 95 | 1017.5 |
| 20260906064040 | 71 | 160 | 0.0 | 1.0 | 0.00 | 0.00 | 0.00 | 95 | 1017.5 |
| 20260906063536 | 71 | 91 | 0.0 | 0.0 | 0.00 | 0.00 | 0.00 | 95 | 1017.5 |
| 20260906063032 | 71 | 128 | 0.0 | 0.0 | 0.00 | 0.00 | 0.00 | 95 | 1017.5 |
| 20260906062527 | 71 | 137 | 0.0 | 0.0 | 0.00 | 0.00 | 0.00 | 95 | 1017.7 |
| 20260906062021 | 72 | 133 | 0.0 | 0.0 | 0.00 | 0.00 | 0.00 | 95 | 1017.5 |
| 20260906061517 | 72 | 131 | 1.0 | 1.0 | 0.00 | 0.00 | 0.00 | 95 | 1017.7 |
| 20260906061016 | 72 | 132 | 1.0 | 2.0 | 0.00 | 0.00 | 0.00 | 95 | 1017.7 |
| 20260906060513 | 72 | 76 | 0.0 | 1.0 | 0.00 | 0.00 | 0.00 | 95 | 1017.5 |
| 20260906060010 | 72 | 60 | 3.0 | 3.0 | 0.00 | 0.00 | 0.00 | 95 | 1017.6 |
| 20260906055505 | 72 | 64 | 1.0 | 1.0 | 0.00 | 0.00 | 0.00 | 94 | 1017.4 |
| 20260906055001 | 72 | 23 | 2.0 | 2.0 | 0.00 | 0.00 | 0.00 | 94 | 1017.6 |
| 20260906054501 | 72 | 97 | 2.0 | 2.0 | 0.00 | 0.00 | 0.00 | 94 | 1017.3 |
| 20260906053956 | 72 | 115 | 1.0 | 1.0 | 0.00 | 0.00 | 0.00 | 94 | 1017.3 |
| 20260906053452 | 72 | 39 | 2.0 | 3.0 | 0.00 | 0.00 | 0.00 | 94 | 1017.5 |
| 20260906052948 | 72 | 21 | 1.0 | 1.0 | 0.00 | 0.00 | 0.00 | 94 | 1017.6 |
| 20260906052444 | 72 | 333 | 2.0 | 3.0 | 0.00 | 0.00 | 0.00 | 94 | 1017.6 |
| 20260906051940 | 72 | 294 | 1.0 | 1.0 | 0.00 | 0.00 | 0.00 | 93 | 1017.7 |
| 20260906051436 | 73 | 93 | 2.0 | 2.0 | 0.00 | 0.00 | 0.00 | 93 | 1017.5 |
| 20260906050931 | 73 | 36 | 1.0 | 2.0 | 0.00 | 0.00 | 0.00 | 93 | 1017.7 |
| 20260906050431 | 73 | 12 | 1.0 | 2.0 | 0.00 | 0.00 | 0.00 | 93 | 1017.4 |
| 20260906045930 | 73 | 118 | 0.0 | 1.0 | 0.00 | 0.00 | 0.00 | 93 | 1017.5 |
| 20260906045429 | 73 | 36 | 0.0 | 1.0 | 0.00 | 0.00 | 0.00 | 93 | 1017.5 |
| 20260906044926 | 73 | 49 | 2.0 | 2.0 | 0.00 | 0.00 | 0.00 | 92 | 1017.4 |
| 20260906044426 | 73 | 113 | 1.0 | 1.0 | 0.00 | 0.00 | 0.00 | 92 | 1017.4 |
| 20260906043921 | 73 | 58 | 3.0 | 5.0 | 0.00 | 0.00 | 0.00 | 92 | 1017.4 |
| 20260906043417 | 73 | 151 | 0.0 | 1.0 | 0.00 | 0.00 | 0.00 | 92 | 1017.1 |
| 20260906042913 | 73 | 69 | 1.0 | 2.0 | 0.00 | 0.00 | 0.00 | 92 | 1017.3 |
| 20260906042412 | 73 | 328 | 2.0 | 2.0 | 0.00 | 0.00 | 0.00 | 92 | 1017.0 |
| 20260906041907 | 73 | 42 | 1.0 | 2.0 | 0.00 | 0.00 | 0.00 | 92 | 1017.2 |
| 20260906041403 | 73 | 350 | 0.0 | 0.0 | 0.00 | 0.00 | 0.00 | 92 | 1017.2 |
| 20260906040902 | 73 | 23 | 2.0 | 3.0 | 0.00 | 0.00 | 0.00 | 91 | 1017.4 |
| 20260906040358 | 73 | 18 | 3.0 | 3.0 | 0.00 | 0.00 | 0.00 | 91 | 1017.4 |
| 20260906035853 | 73 | 359 | 2.0 | 3.0 | 0.00 | 0.02 | 0.02 | 91 | 1017.5 |
| 20260906035348 | 73 | 294 | 2.0 | 2.0 | 0.00 | 0.02 | 0.02 | 91 | 1017.2 |
| 20260906034844 | 73 | 322 | 3.0 | 5.0 | 0.00 | 0.02 | 0.02 | 90 | 1017.4 |
| 20260906034344 | 73 | 106 | 1.0 | 1.0 | 0.00 | 0.02 | 0.02 | 90 | 1017.4 |
| 20260906033840 | 73 | 31 | 3.0 | 5.0 | 0.00 | 0.02 | 0.02 | 90 | 1017.5 |
| 20260906033339 | 74 | 37 | 3.0 | 5.0 | 0.00 | 0.02 | 0.02 | 90 | 1017.4 |
| 20260906032836 | 74 | 345 | 3.0 | 3.0 | 0.00 | 0.02 | 0.02 | 89 | 1017.3 |
| 20260906032332 | 74 | 7 | 2.0 | 2.0 | 0.00 | 0.02 | 0.02 | 89 | 1017.3 |
| 20260906031832 | 74 | 273 | 2.0 | 2.0 | 0.00 | 0.02 | 0.02 | 89 | 1017.3 |
| 20260906031327 | 74 | 1 | 3.0 | 3.0 | 0.00 | 0.02 | 0.02 | 89 | 1017.5 |
| 20260906030827 | 74 | 292 | 2.0 | 3.0 | 0.00 | 0.02 | 0.02 | 89 | 1017.4 |
| 20260906030323 | 75 | 352 | 2.0 | 3.0 | 0.00 | 0.02 | 0.02 | 89 | 1017.4 |
| 20260906025823 | 75 | 343 | 3.0 | 5.0 | 0.00 | 0.02 | 0.02 | 89 | 1017.7 |
| 20260906025317 | 75 | 24 | 2.0 | 2.0 | 0.00 | 0.02 | 0.02 | 89 | 1017.5 |
| 20260906024816 | 75 | 281 | 4.0 | 5.0 | 0.00 | 0.02 | 0.02 | 88 | 1017.5 |
| 20260906024315 | 75 | 353 | 1.0 | 2.0 | 0.00 | 0.02 | 0.02 | 88 | 1017.5 |
| 20260906023811 | 76 | 203 | 2.0 | 3.0 | 0.00 | 0.02 | 0.02 | 88 | 1017.4 |
| 20260906023306 | 76 | 109 | 1.0 | 1.0 | 0.00 | 0.02 | 0.02 | 87 | 1017.1 |
| 20260906022801 | 76 | 308 | 3.0 | 3.0 | 0.00 | 0.02 | 0.02 | 87 | 1017.5 |
| 20260906022257 | 76 | 184 | 0.0 | 0.0 | 0.00 | 0.02 | 0.02 | 87 | 1017.3 |
| 20260906021753 | 76 | 50 | 1.0 | 1.0 | 0.00 | 0.02 | 0.02 | 87 | 1017.2 |
| 20260906021251 | 76 | 340 | 1.0 | 1.0 | 0.00 | 0.02 | 0.02 | 86 | 1017.3 |
| 20260906020746 | 77 | 23 | 2.0 | 3.0 | 0.00 | 0.02 | 0.02 | 85 | 1016.9 |
| 20260906020241 | 77 | 343 | 3.0 | 3.0 | 0.00 | 0.02 | 0.02 | 85 | 1016.9 |
| 20260906015741 | 77 | 51 | 1.0 | 2.0 | 0.00 | 0.02 | 0.02 | 84 | 1016.8 |
| 20260906015240 | 78 | 51 | 2.0 | 2.0 | 0.00 | 0.02 | 0.02 | 83 | 1017.0 |
| 20260906014739 | 78 | 112 | 0.0 | 1.0 | 0.00 | 0.02 | 0.02 | 82 | 1016.9 |
| 20260906014235 | 78 | 91 | 1.0 | 1.0 | 0.00 | 0.02 | 0.02 | 82 | 1016.8 |
| 20260906013731 | 79 | 134 | 1.0 | 1.0 | 0.00 | 0.02 | 0.02 | 81 | 1016.9 |
| 20260906013231 | 79 | 333 | 1.0 | 2.0 | 0.00 | 0.02 | 0.02 | 80 | 1016.9 |
| 20260906012726 | 79 | 91 | 1.0 | 2.0 | 0.00 | 0.02 | 0.02 | 80 | 1017.0 |
| 20260906012221 | 80 | 5 | 3.0 | 3.0 | 0.00 | 0.02 | 0.02 | 79 | 1016.9 |
| 20260906011716 | 80 | 35 | 3.0 | 5.0 | 0.00 | 0.02 | 0.02 | 79 | 1017.0 |
| 20260906011211 | 80 | 45 | 1.0 | 3.0 | 0.00 | 0.02 | 0.02 | 78 | 1016.7 |
| 20260906010707 | 81 | 49 | 2.0 | 3.0 | 0.00 | 0.02 | 0.02 | 77 | 1016.6 |
| 20260906010203 | 81 | 338 | 5.0 | 7.0 | 0.00 | 0.02 | 0.02 | 77 | 1016.6 |
| 20260906005702 | 82 | 344 | 2.0 | 2.0 | 0.00 | 0.02 | 0.02 | 77 | 1016.6 |
| 20260906005202 | 82 | 53 | 2.0 | 2.0 | 0.00 | 0.02 | 0.02 | 77 | 1016.5 |
| 20260906004701 | 82 | 24 | 4.0 | 5.0 | 0.00 | 0.02 | 0.02 | 77 | 1016.5 |
| 20260906004156 | 82 | 35 | 5.0 | 8.0 | 0.00 | 0.02 | 0.02 | 77 | 1016.4 |
| 20260906003652 | 82 | 345 | 2.0 | 2.0 | 0.00 | 0.02 | 0.02 | 77 | 1016.4 |
| 20260906003148 | 82 | 45 | 4.0 | 6.0 | 0.00 | 0.02 | 0.02 | 77 | 1016.4 |
| 20260906002647 | 82 | 359 | 3.0 | 6.0 | 0.00 | 0.02 | 0.02 | 77 | 1016.5 |
| 20260906002142 | 83 | 218 | 3.0 | 5.0 | 0.00 | 0.02 | 0.02 | 76 | 1016.6 |
| 20260906001637 | 83 | 348 | 4.0 | 5.0 | 0.00 | 0.02 | 0.02 | 75 | 1016.4 |
| 20260906001137 | 84 | 31 | 4.0 | 5.0 | 0.00 | 0.02 | 0.02 | 75 | 1016.4 |
| 20260906000633 | 84 | 3 | 3.0 | 5.0 | 0.00 | 0.02 | 0.02 | 75 | 1016.5 |
| 20260906000128 | 84 | 13 | 2.0 | 3.0 | 0.00 | 0.02 | 0.02 | 75 | 1016.4 |
| 20260905235627 | 85 | 56 | 5.0 | 7.0 | 0.00 | 0.02 | 0.02 | 75 | 1016.4 |
| 20260905235123 | 86 | 13 | 5.0 | 8.0 | 0.00 | 0.02 | 0.02 | 74 | 1016.3 |
| 20260905234618 | 86 | 39 | 2.0 | 2.0 | 0.00 | 0.02 | 0.02 | 73 | 1016.5 |
| 20260905234114 | 87 | 42 | 5.0 | 8.0 | 0.00 | 0.02 | 0.02 | 73 | 1016.3 |
| 20260905233613 | 87 | 1 | 5.0 | 9.0 | 0.00 | 0.02 | 0.02 | 71 | 1016.2 |
| 20260905233108 | 87 | 68 | 1.0 | 2.0 | 0.00 | 0.02 | 0.02 | 71 | 1016.3 |
| 20260905232603 | 87 | 92 | 0.0 | 1.0 | 0.00 | 0.02 | 0.02 | 70 | 1016.3 |
| 20260905232059 | 88 | 102 | 0.0 | 0.0 | 0.00 | 0.02 | 0.02 | 70 | 1016.3 |
| 20260905231554 | 88 | 7 | 1.0 | 1.0 | 0.00 | 0.02 | 0.02 | 68 | 1016.3 |
| 20260905231050 | 89 | 144 | 2.0 | 2.0 | 0.00 | 0.02 | 0.02 | 69 | 1016.2 |
| 20260905230549 | 89 | 162 | 0.0 | 1.0 | 0.00 | 0.02 | 0.02 | 69 | 1016.2 |
| 20260905230049 | 90 | 118 | 1.0 | 1.0 | 0.00 | 0.02 | 0.02 | 69 | 1016.2 |
| 20260905225548 | 90 | 349 | 3.0 | 5.0 | 0.00 | 0.02 | 0.02 | 68 | 1016.2 |
| 20260905225043 | 90 | 356 | 4.0 | 5.0 | 0.00 | 0.02 | 0.02 | 67 | 1016.1 |
| 20260905224538 | 91 | 261 | 4.0 | 6.0 | 0.00 | 0.02 | 0.02 | 67 | 1016.0 |
| 20260905224037 | 90 | 297 | 3.0 | 3.0 | 0.00 | 0.02 | 0.02 | 66 | 1016.1 |
| 20260905223535 | 91 | 240 | 2.0 | 2.0 | 0.00 | 0.02 | 0.02 | 66 | 1016.2 |
| 20260905223031 | 92 | 334 | 2.0 | 2.0 | 0.00 | 0.02 | 0.02 | 65 | 1016.1 |
| 20260905222530 | 93 | 216 | 1.0 | 1.0 | 0.00 | 0.02 | 0.02 | 64 | 1015.9 |
| 20260905222026 | 93 | 355 | 3.0 | 3.0 | 0.00 | 0.02 | 0.02 | 64 | 1015.9 |
| 20260905221522 | 93 | 342 | 2.0 | 2.0 | 0.00 | 0.02 | 0.02 | 63 | 1015.9 |
| 20260905221018 | 93 | 4 | 2.0 | 2.0 | 0.00 | 0.02 | 0.02 | 61 | 1016.1 |
| 20260905220514 | 94 | 354 | 1.0 | 2.0 | 0.00 | 0.02 | 0.02 | 62 | 1016.0 |
| 20260905220009 | 93 | 317 | 3.0 | 3.0 | 0.00 | 0.02 | 0.02 | 61 | 1015.9 |
| 20260905215504 | 94 | 307 | 3.0 | 5.0 | 0.00 | 0.02 | 0.02 | 60 | 1015.9 |
| 20260905215000 | 94 | 292 | 3.0 | 3.0 | 0.00 | 0.02 | 0.02 | 60 | 1016.0 |
| 20260905214455 | 94 | 269 | 2.0 | 2.0 | 0.00 | 0.02 | 0.02 | 60 | 1015.9 |
| 20260905213955 | 94 | 290 | 3.0 | 3.0 | 0.00 | 0.02 | 0.02 | 59 | 1015.8 |
| 20260905213451 | 94 | 284 | 2.0 | 2.0 | 0.00 | 0.02 | 0.02 | 59 | 1016.1 |
| 20260905212946 | 94 | 195 | 2.0 | 2.0 | 0.00 | 0.02 | 0.02 | 61 | 1015.9 |
| 20260905212441 | 93 | 177 | 1.0 | 2.0 | 0.00 | 0.02 | 0.02 | 59 | 1016.0 |
| 20260905211940 | 94 | 323 | 1.0 | 2.0 | 0.00 | 0.02 | 0.02 | 59 | 1016.1 |
| 20260905211436 | 94 | 160 | 2.0 | 3.0 | 0.00 | 0.02 | 0.02 | 59 | 1015.9 |
| 20260905210932 | 94 | 4 | 0.0 | 0.0 | 0.00 | 0.02 | 0.02 | 59 | 1016.1 |
| 20260905210432 | 94 | 351 | 2.0 | 3.0 | 0.00 | 0.02 | 0.02 | 58 | 1016.2 |
| 20260905205932 | 94 | 358 | 1.0 | 1.0 | 0.00 | 0.02 | 0.02 | 58 | 1016.1 |
| 20260905205427 | 94 | 316 | 2.0 | 2.0 | 0.00 | 0.02 | 0.02 | 57 | 1016.2 |
| 20260905204925 | 94 | 176 | 0.0 | 1.0 | 0.00 | 0.02 | 0.02 | 54 | 1016.3 |
| 20260905204422 | 94 | 190 | 1.0 | 2.0 | 0.00 | 0.02 | 0.02 | 52 | 1015.9 |
| 20260905203921 | 93 | 329 | 3.0 | 3.0 | 0.00 | 0.02 | 0.02 | 51 | 1016.3 |
| 20260905203416 | 94 | 134 | 1.0 | 2.0 | 0.00 | 0.02 | 0.02 | 50 | 1016.3 |
| 20260905202912 | 93 | 318 | 2.0 | 5.0 | 0.00 | 0.02 | 0.02 | 53 | 1016.1 |
| 20260905202407 | 93 | 155 | 0.0 | 0.0 | 0.00 | 0.02 | 0.02 | 56 | 1016.4 |
| 20260905201903 | 91 | 181 | 2.0 | 2.0 | 0.00 | 0.02 | 0.02 | 59 | 1016.5 |
| 20260905201358 | 89 | 301 | 3.0 | 5.0 | 0.00 | 0.02 | 0.02 | 65 | 1016.4 |
| 20260905200857 | 87 | 145 | 2.0 | 2.0 | 0.00 | 0.02 | 0.02 | 70 | 1016.7 |
| 20260905200353 | 88 | 140 | 1.0 | 2.0 | 0.00 | 0.02 | 0.02 | 68 | 1016.7 |
| 20260905195851 | 88 | 11 | 1.0 | 2.0 | 0.00 | 0.02 | 0.02 | 65 | 1016.8 |
| 20260905195347 | 90 | 167 | 0.0 | 1.0 | 0.00 | 0.02 | 0.02 | 69 | 1016.9 |
| 20260905194843 | 91 | 171 | 0.0 | 0.0 | 0.00 | 0.02 | 0.02 | 67 | 1016.7 |
| 20260905194342 | 91 | 158 | 0.0 | 0.0 | 0.00 | 0.02 | 0.02 | 66 | 1017.0 |
| 20260905193841 | 92 | 114 | 0.0 | 0.0 | 0.00 | 0.02 | 0.02 | 65 | 1016.8 |
| 20260905193336 | 92 | 175 | 0.0 | 0.0 | 0.00 | 0.02 | 0.02 | 63 | 1017.0 |
| 20260905192832 | 92 | 181 | 0.0 | 0.0 | 0.00 | 0.02 | 0.02 | 63 | 1016.9 |
| 20260905192328 | 91 | 180 | 0.0 | 1.0 | 0.00 | 0.02 | 0.02 | 65 | 1017.0 |
| 20260905191827 | 93 | 211 | 3.0 | 3.0 | 0.00 | 0.02 | 0.02 | 62 | 1017.2 |
| 20260905191326 | 94 | 328 | 1.0 | 1.0 | 0.00 | 0.02 | 0.02 | 58 | 1017.0 |
| 20260905190825 | 94 | 216 | 1.0 | 1.0 | 0.00 | 0.02 | 0.02 | 57 | 1017.1 |
| 20260905190324 | 95 | 306 | 1.0 | 1.0 | 0.00 | 0.02 | 0.02 | 56 | 1017.1 |
| 20260905185823 | 95 | 165 | 0.0 | 0.0 | 0.00 | 0.02 | 0.02 | 55 | 1016.8 |
| 20260905185319 | 94 | 183 | 1.0 | 2.0 | 0.00 | 0.02 | 0.02 | 58 | 1017.1 |
| 20260905184818 | 94 | 300 | 1.0 | 1.0 | 0.00 | 0.02 | 0.02 | 59 | 1017.3 |
| 20260905184317 | 93 | 256 | 0.0 | 0.0 | 0.00 | 0.02 | 0.02 | 60 | 1017.5 |
| 20260905183816 | 93 | 178 | 0.0 | 0.0 | 0.00 | 0.02 | 0.02 | 61 | 1017.3 |
| 20260905183311 | 92 | 169 | 2.0 | 2.0 | 0.00 | 0.02 | 0.02 | 62 | 1017.5 |
| 20260905182806 | 91 | 168 | 2.0 | 3.0 | 0.00 | 0.02 | 0.02 | 61 | 1017.5 |
| 20260905182306 | 91 | 165 | 5.0 | 5.0 | 0.00 | 0.02 | 0.02 | 62 | 1017.6 |
| 20260905181801 | 92 | 227 | 1.0 | 2.0 | 0.00 | 0.02 | 0.02 | 62 | 1017.7 |
| 20260905181301 | 91 | 186 | 0.0 | 0.0 | 0.00 | 0.02 | 0.02 | 63 | 1017.5 |
| 20260905180800 | 90 | 171 | 3.0 | 5.0 | 0.00 | 0.02 | 0.02 | 63 | 1017.6 |
| 20260905180255 | 90 | 177 | 1.0 | 1.0 | 0.00 | 0.02 | 0.02 | 63 | 1017.6 |
| 20260905175755 | 90 | 233 | 1.0 | 1.0 | 0.00 | 0.02 | 0.02 | 65 | 1017.8 |
| 20260905175250 | 90 | 164 | 4.0 | 5.0 | 0.00 | 0.02 | 0.02 | 64 | 1017.6 |
| 20260905174745 | 89 | 179 | 2.0 | 2.0 | 0.00 | 0.02 | 0.02 | 67 | 1017.7 |
| 20260905174241 | 90 | 215 | 4.0 | 6.0 | 0.00 | 0.02 | 0.02 | 64 | 1017.8 |
| 20260905173737 | 89 | 160 | 1.0 | 2.0 | 0.00 | 0.02 | 0.02 | 64 | 1017.4 |
| 20260905173232 | 89 | 183 | 3.0 | 5.0 | 0.00 | 0.02 | 0.02 | 63 | 1017.5 |
| 20260905172727 | 89 | 145 | 4.0 | 5.0 | 0.00 | 0.02 | 0.02 | 65 | 1017.6 |
| 20260905172226 | 89 | 214 | 3.0 | 3.0 | 0.00 | 0.02 | 0.02 | 65 | 1017.7 |
| 20260905171722 | 88 | 146 | 4.0 | 6.0 | 0.00 | 0.02 | 0.02 | 64 | 1017.7 |
| 20260905171218 | 89 | 184 | 2.0 | 2.0 | 0.00 | 0.02 | 0.02 | 64 | 1017.6 |
| 20260905170715 | 88 | 123 | 4.0 | 5.0 | 0.00 | 0.02 | 0.02 | 65 | 1017.8 |
| 20260905170215 | 88 | 158 | 3.0 | 5.0 | 0.00 | 0.02 | 0.02 | 66 | 1017.7 |
| 20260905165715 | 87 | 172 | 1.0 | 2.0 | 0.00 | 0.02 | 0.02 | 66 | 1017.7 |
| 20260905165210 | 87 | 149 | 3.0 | 3.0 | 0.00 | 0.02 | 0.02 | 64 | 1018.1 |
| 20260905164705 | 87 | 141 | 4.0 | 5.0 | 0.00 | 0.02 | 0.02 | 67 | 1017.9 |
| 20260905164205 | 87 | 204 | 2.0 | 2.0 | 0.00 | 0.02 | 0.02 | 66 | 1017.6 |
| 20260905163700 | 86 | 155 | 4.0 | 5.0 | 0.00 | 0.02 | 0.02 | 67 | 1017.8 |
| 20260905163157 | 85 | 157 | 5.0 | 6.0 | 0.00 | 0.02 | 0.02 | 68 | 1017.6 |
| 20260905162653 | 86 | 154 | 4.0 | 5.0 | 0.00 | 0.02 | 0.02 | 66 | 1017.6 |
| 20260905162153 | 86 | 179 | 4.0 | 5.0 | 0.00 | 0.02 | 0.02 | 67 | 1017.9 |
| 20260905161648 | 84 | 167 | 2.0 | 2.0 | 0.00 | 0.02 | 0.02 | 68 | 1017.8 |
| 20260905161145 | 83 | 171 | 5.0 | 6.0 | 0.00 | 0.02 | 0.02 | 68 | 1017.9 |
| 20260905160644 | 84 | 149 | 4.0 | 5.0 | 0.00 | 0.02 | 0.02 | 67 | 1017.7 |
| 20260905160143 | 85 | 207 | 6.0 | 8.0 | 0.00 | 0.02 | 0.02 | 65 | 1017.7 |
| 20260905155638 | 85 | 128 | 4.0 | 6.0 | 0.00 | 0.02 | 0.02 | 65 | 1017.6 |
| 20260905155138 | 85 | 155 | 6.0 | 7.0 | 0.00 | 0.02 | 0.02 | 67 | 1017.8 |
| 20260905154637 | 84 | 165 | 5.0 | 5.0 | 0.00 | 0.02 | 0.02 | 67 | 1017.9 |
| 20260905154133 | 84 | 181 | 5.0 | 6.0 | 0.00 | 0.02 | 0.02 | 66 | 1017.8 |
| 20260905153629 | 83 | 173 | 7.0 | 8.0 | 0.00 | 0.02 | 0.02 | 67 | 1017.8 |
| 20260905153124 | 83 | 137 | 7.0 | 8.0 | 0.00 | 0.02 | 0.02 | 68 | 1017.8 |
| 20260905152619 | 83 | 181 | 3.0 | 5.0 | 0.00 | 0.02 | 0.02 | 69 | 1017.6 |
| 20260905152113 | 83 | 100 | 6.0 | 7.0 | 0.00 | 0.02 | 0.02 | 69 | 1017.6 |
| 20260905151609 | 83 | 161 | 7.0 | 10.0 | 0.00 | 0.02 | 0.02 | 71 | 1017.5 |
| 20260905151104 | 82 | 151 | 5.0 | 8.0 | 0.00 | 0.02 | 0.02 | 71 | 1017.7 |
| 20260905150559 | 82 | 157 | 7.0 | 8.0 | 0.00 | 0.02 | 0.02 | 70 | 1017.8 |
| 20260905150057 | 82 | 174 | 7.0 | 9.0 | 0.00 | 0.02 | 0.02 | 71 | 1018.1 |
| 20260905145556 | 82 | 127 | 7.0 | 9.0 | 0.00 | 0.02 | 0.02 | 71 | 1017.9 |
| 20260905145055 | 81 | 167 | 9.0 | 10.0 | 0.00 | 0.02 | 0.02 | 70 | 1017.9 |
| 20260905144551 | 81 | 185 | 6.0 | 8.0 | 0.00 | 0.02 | 0.02 | 72 | 1017.8 |
| 20260905144050 | 81 | 129 | 7.0 | 9.0 | 0.00 | 0.02 | 0.02 | 72 | 1017.7 |
| 20260905143549 | 81 | 142 | 6.0 | 7.0 | 0.00 | 0.02 | 0.02 | 73 | 1017.8 |
| 20260905143044 | 81 | 149 | 6.0 | 8.0 | 0.00 | 0.02 | 0.02 | 74 | 1017.6 |
| 20260905142543 | 81 | 166 | 3.0 | 5.0 | 0.00 | 0.02 | 0.02 | 76 | 1017.5 |
| 20260905142039 | 80 | 144 | 5.0 | 6.0 | 0.00 | 0.02 | 0.02 | 77 | 1017.3 |
| 20260905141538 | 80 | 192 | 5.0 | 7.0 | 0.00 | 0.02 | 0.02 | 78 | 1017.4 |
| 20260905141036 | 80 | 178 | 5.0 | 6.0 | 0.00 | 0.02 | 0.02 | 81 | 1017.6 |
| 20260905140535 | 79 | 156 | 5.0 | 8.0 | 0.00 | 0.02 | 0.02 | 84 | 1017.5 |
| 20260905140034 | 79 | 155 | 8.0 | 9.0 | 0.00 | 0.02 | 0.02 | 84 | 1017.5 |
| 20260905135531 | 79 | 127 | 6.0 | 9.0 | 0.00 | 0.02 | 0.02 | 84 | 1017.4 |
| 20260905135031 | 79 | 156 | 4.0 | 6.0 | 0.00 | 0.02 | 0.02 | 84 | 1017.2 |
| 20260905134526 | 79 | 143 | 7.0 | 9.0 | 0.00 | 0.02 | 0.02 | 84 | 1017.6 |
| 20260905134024 | 79 | 92 | 5.0 | 7.0 | 0.00 | 0.02 | 0.02 | 86 | 1017.2 |
| 20260905133520 | 79 | 135 | 9.0 | 13.0 | 0.00 | 0.02 | 0.02 | 86 | 1017.4 |
| 20260905133020 | 78 | 127 | 5.0 | 7.0 | 0.00 | 0.02 | 0.02 | 89 | 1017.5 |
| 20260905132519 | 78 | 116 | 5.0 | 7.0 | 0.00 | 0.02 | 0.02 | 89 | 1017.4 |
| 20260905132014 | 77 | 172 | 6.0 | 7.0 | 0.00 | 0.02 | 0.02 | 90 | 1017.4 |
| 20260905131515 | 77 | 129 | 8.0 | 9.0 | 0.00 | 0.02 | 0.02 | 93 | 1017.3 |
| 20260905131010 | 77 | 98 | 3.0 | 3.0 | 0.00 | 0.02 | 0.02 | 95 | 1017.3 |
| 20260905130509 | 77 | 124 | 0.0 | 0.0 | 0.00 | 0.02 | 0.02 | 94 | 1017.0 |
| 20260905130004 | 77 | 121 | 0.0 | 0.0 | 0.00 | 0.02 | 0.02 | 93 | 1017.1 |
| 20260905125458 | 77 | 135 | 0.0 | 0.0 | 0.00 | 0.02 | 0.02 | 93 | 1017.0 |
| 20260905124954 | 77 | 135 | 0.0 | 0.0 | 0.00 | 0.02 | 0.02 | 92 | 1016.9 |
| 20260905124451 | 77 | 135 | 0.0 | 0.0 | 0.00 | 0.02 | 0.02 | 92 | 1016.9 |
| 20260905123946 | 77 | 135 | 0.0 | 0.0 | 0.00 | 0.02 | 0.02 | 93 | 1016.8 |
| 20260905123442 | 77 | 135 | 0.0 | 0.0 | 0.00 | 0.02 | 0.02 | 93 | 1017.2 |
| 20260905122942 | 77 | 140 | 0.0 | 1.0 | 0.00 | 0.02 | 0.02 | 93 | 1016.8 |
| 20260905122442 | 77 | 171 | 0.0 | 0.0 | 0.00 | 0.02 | 0.02 | 95 | 1016.7 |
| 20260905121938 | 76 | 180 | 0.0 | 0.0 | 0.00 | 0.02 | 0.02 | 96 | 1016.7 |
| 20260905121433 | 76 | 189 | 0.0 | 0.0 | 0.00 | 0.02 | 0.02 | 96 | 1016.7 |
| 20260905120932 | 75 | 185 | 0.0 | 0.0 | 0.00 | 0.02 | 0.02 | 97 | 1016.4 |
| 20260905120427 | 75 | 178 | 0.0 | 0.0 | 0.00 | 0.02 | 0.02 | 97 | 1016.6 |
| 20260905115922 | 75 | 192 | 0.0 | 0.0 | 0.00 | 0.02 | 0.02 | 97 | 1016.4 |
| 20260905115421 | 74 | 193 | 0.0 | 0.0 | 0.00 | 0.02 | 0.02 | 97 | 1016.4 |
| 20260905114917 | 74 | 204 | 0.0 | 0.0 | 0.00 | 0.02 | 0.02 | 97 | 1016.2 |
| 20260905114416 | 74 | 208 | 0.0 | 0.0 | 0.00 | 0.02 | 0.02 | 97 | 1016.6 |
| 20260905113915 | 74 | 159 | 0.0 | 0.0 | 0.00 | 0.02 | 0.02 | 97 | 1016.6 |
| 20260905113411 | 74 | 144 | 0.0 | 0.0 | 0.00 | 0.02 | 0.02 | 97 | 1016.3 |
| 20260905112906 | 74 | 180 | 0.0 | 0.0 | 0.00 | 0.02 | 0.02 | 97 | 1016.5 |
| 20260905112401 | 74 | 151 | 0.0 | 0.0 | 0.05 | 0.02 | 0.02 | 97 | 1016.4 |
| 20260905111856 | 74 | 151 | 0.0 | 0.0 | 0.12 | 0.02 | 0.02 | 97 | 1016.4 |
| 20260905111356 | 73 | 163 | 0.0 | 0.0 | 0.07 | 0.01 | 0.01 | 97 | 1016.4 |
| 20260905110856 | 73 | 165 | 0.0 | 0.0 | 0.00 | 0.00 | 0.00 | 97 | 1016.6 |
| 20260905110350 | 73 | 168 | 0.0 | 0.0 | 0.00 | 0.00 | 0.00 | 97 | 1016.4 |
| 20260905105845 | 73 | 181 | 0.0 | 0.0 | 0.00 | 0.00 | 0.00 | 97 | 1016.3 |
| 20260905105345 | 73 | 151 | 0.0 | 0.0 | 0.00 | 0.00 | 0.00 | 97 | 1016.7 |
| 20260905104844 | 73 | 197 | 0.0 | 0.0 | 0.00 | 0.00 | 0.00 | 97 | 1016.3 |
| 20260905104341 | 73 | 193 | 0.0 | 0.0 | 0.00 | 0.00 | 0.00 | 97 | 1016.4 |
| 20260905103841 | 73 | 165 | 0.0 | 0.0 | 0.00 | 0.00 | 0.00 | 97 | 1016.5 |
| 20260905103336 | 73 | 163 | 0.0 | 0.0 | 0.00 | 0.00 | 0.00 | 97 | 1016.4 |
| 20260905102832 | 73 | 158 | 0.0 | 0.0 | 0.00 | 0.00 | 0.00 | 97 | 1016.4 |
| 20260905102329 | 72 | 122 | 0.0 | 0.0 | 0.00 | 0.00 | 0.00 | 97 | 1016.6 |
| 20260905101828 | 72 | 142 | 0.0 | 0.0 | 0.00 | 0.00 | 0.00 | 97 | 1016.3 |